Tracking 30995 objects as of 7-Jul-2025
HD Live streaming from Space Station
objects crossing your sky now

STARLINK-30328

Track STARLINK-30328 now!
10-day predictions
STARLINK-30328 is classified as:


NORAD ID: 57638
Int'l Code: 2023-122G
Perigee: 565.0 km
Apogee: 567.4 km
Inclination: 43.0 °
Period: 95.8 minutes
Semi major axis: 6937 km
RCS: Unknown
Launch date: August 17, 2023
Source: United States (US)
Launch site: AIR FORCE EASTERN TEST RANGE (AFETR)
Your satellite tracking list
MONITOR-3
Track 1 satellite(s)




NASA's NSSDC Master Catalog

Two Line Element Set (TLE):
1 57638U 23122G   25187.43008853  .00000272  00000-0  35192-4 0  9998
2 57638  43.0040 339.4723 0001719 246.9898 113.0763 15.02533941105300
Source of the keplerian elements: AFSPC